Home   Weather   Boston   Past weeks
Flag for USA

Past Weather in Boston, Massachusetts, USA — Yesterday and Last 2 Weeks

Now
90 °F

Broken clouds.


Feels Like: 98 °F
Forecast: 94 / 81 °F
Wind: 14 mph from Southwest

Location: Logan International Airport

Current Time: Jul 19, 2019 at 9:16:35 pm

Latest Report: Jul 19, 2019 at 7:54 pm


Visibility: 10 mi

Pressure: 29.76 "Hg

Humidity: 57%

Dew Point: 73 °F

Location of BostonLocation

Past Weather in Boston — Graph

°F

Boston Temperature Yesterday

Maximum temperature yesterday: 78 °F (at 12:54 am)
Minimum temperature yesterday: 67 °F (at 10:54 pm)
Average temperature yesterday: 71 °F

High & Low Weather Summary for the Past Weeks

 TemperatureHumidityPressure
High94 °F (Jul 6, 3:54 pm)94% (Jul 12, 10:31 am)30.16 "Hg (Jul 12, 10:31 am)
Low66 °F (Jul 8, 4:54 am)26% (Jul 9, 5:54 pm)29.66 "Hg (Jul 12, 2:54 pm)
Average77 °F63%29.92 "Hg
* Reported Jul 4 7:54 pm — Jul 19 7:54 pm, Boston. Weather by CustomWeather, © 2019

Note: Actual official high and low records may vary slightly from our data, if they occured in-between our weather recording intervals... More about our weather records

Advertising

Boston Weather History for the Previous 24 Hours

Scroll right to see more
 ConditionsComfort  
Time TempWeatherWind HumidityBarometerVisibility
7:54 pm
Fri, Jul 19
90 °FBroken clouds.14 mph57%29.76 "Hg10 mi
6:54 pm91 °FBroken clouds.12 mph56%29.76 "Hg10 mi
5:54 pm92 °FPartly sunny.16 mph52%29.75 "Hg10 mi
4:54 pm92 °FBroken clouds.12 mph51%29.76 "Hg10 mi
3:54 pm92 °FPartly sunny.13 mph51%29.78 "Hg10 mi
2:54 pm91 °FPartly sunny.13 mph54%29.78 "Hg10 mi
1:54 pm88 °FPassing clouds.10 mph55%29.80 "Hg10 mi
12:54 pm80 °FPassing clouds.8 mph64%29.83 "Hg10 mi
11:54 am78 °FPassing clouds.10 mph62%29.85 "Hg10 mi
10:54 am75 °FPassing clouds.9 mph62%29.86 "Hg10 mi
9:54 am73 °FScattered clouds.7 mph62%29.88 "Hg10 mi
8:54 am71 °FPartly sunny.5 mph68%29.89 "Hg10 mi
7:54 am70 °FPartly sunny.3 mph66%29.90 "Hg10 mi
6:54 am70 °FPartly sunny.3 mph59%29.90 "Hg10 mi
6:31 am69 °FMore clouds than sun.6 mph61%29.91 "Hg10 mi
5:54 am68 °FPartly sunny.3 mph65%29.89 "Hg10 mi
4:54 am68 °FOvercast.7 mph68%29.88 "Hg10 mi
3:54 am67 °FOvercast.7 mph73%29.89 "Hg10 mi
3:13 am67 °FPassing clouds.6 mph73%29.89 "Hg10 mi
2:54 am67 °FPassing clouds.6 mph73%29.89 "Hg10 mi
2:38 am66 °FPassing clouds.5 mph75%29.89 "Hg10 mi
1:54 am68 °FOvercast.3 mph73%29.91 "Hg10 mi
12:54 am67 °FPassing clouds.3 mph76%29.91 "Hg10 mi
11:54 pm
Thu, Jul 18
67 °FPassing clouds.3 mph73%29.92 "Hg10 mi
10:54 pm67 °FPassing clouds.5 mph73%29.93 "Hg10 mi
9:54 pm68 °FPartly cloudy.6 mph68%29.94 "Hg10 mi
9:31 pm68 °FPartly cloudy.6 mph68%29.95 "Hg10 mi
Weather by CustomWeather, © 2019

See weather overview